Location: Écuvilly
(49.6505°N, 2.9206°E)
Time: 07:40:57
(UTC+00:00)

SJ-12 - Pass Details

Date: 17 November 2025
Orbit: 517 x 528 km, 97.8° (Epoch: 13 December)

Event Time Altitude Azimuth Distance (km) Brightness Sun altitude
Rises 17:17:13 0° 165° (SSE) 2,644 7.3 -12.0°
Reaches altitude 10° 17:19:19 10° 166° (SSE) 1,758 6.4 -12.3°
Maximum altitude 17:23:06 88° 249° (WSW) 529 3.7 -12.9°
Drops below altitude 10° 17:26:56 10° 346° (NNW) 1,766 6.4 -13.5°
Sets 17:29:02 0° 347° (NNW) 2,658 7.3 -13.8°
